Location: Barrow Cemetery
(35.4640°N, 90.0870°W)
Time: 16:58:21
(UTC+00:00)

Envisat - Visible Passes

Search period start: 23 June 2024 00:00
Search period end: 03 July 2024 00:00
Orbit: 762 x 764 km, 98.3° (Epoch: 23 June)

Date Brightness Start Highest point End Pass type
(mag) Time Alt. Az. Time Alt. Az. Time Alt. Az.
23 Jun 3.8 08:47:33 10° NNE 08:52:25 46° E 08:56:17 16° SSE visible
24 Jun 5.1 08:11:17 10° NE 08:14:52 19° E 08:18:24 10° SE visible
24 Jun 3.6 09:49:12 10° N 09:53:56 41° WNW 09:58:36 10° SW visible
25 Jun 3.0 09:11:35 10° NNE 09:16:41 82° ESE 09:20:45 16° S visible
26 Jun 4.3 08:34:39 10° NNE 08:39:14 34° E 08:42:55 14° SSE visible
26 Jun 4.3 10:13:57 10° NNW 10:17:59 24° WNW 10:21:59 10° WSW visible
27 Jun 5.4 07:59:01 10° ENE 08:01:35 14° E 08:04:10 10° ESE visible
27 Jun 3.2 09:35:54 10° N 09:40:51 56° WNW 09:45:13 13° SSW visible
28 Jun 3.4 08:58:30 10° NNE 09:03:32 61° E 09:07:22 17° S visible
29 Jun 4.8 08:21:52 10° NE 08:26:00 25° E 08:29:31 13° SE visible
29 Jun 3.9 10:00:29 10° N 10:04:56 32° WNW 10:09:23 10° SW visible
30 Jun 3.0 09:22:40 10° N 09:27:45 76° WNW 09:31:49 16° SSW visible
01 Jul 3.9 08:45:30 10° NNE 08:50:21 44° E 08:53:58 17° SSE visible
02 Jul 5.2 08:09:17 10° NE 08:12:46 18° E 08:16:07 10° SE visible
02 Jul 3.5 09:47:06 10° N 09:51:52 43° WNW 09:56:16 12° SW visible
